GENESIS 2

Last updated on July 7, 2021, 6:08 a.m. UTC

1 31789U 07028A   21187.95755156  .00000438  00000-0  31450-4 0  9999
2 31789  64.4984 165.9007 0001313 133.7697 226.3534 15.17814288773509
UTC
Height (km)
Latitude
Longitude
Inclination
Orbital Period
UTC large
Height (km)
Speed (km/s)
/
Latitude / Longitude
Inclination (degrees)
Orbital Period (minutes)
Azimuth
Elevation
Range (km)
Doppler Factor
iOS Compass Heading
iOS Angle